Robinson, IL

1:15 AM CDT on August 20, 2017 (GMT -0500)
Robinson Municipal

Weather History for KRSV - September, 2012

Change the Weather History Date:

Thursday, September 20, 2012

  Actual Average (KLWV) Record (KLWV)
Temperature  
Mean Temperature 62 °F -  
Max Temperature 74 °F 77 °F 93 °F (2007)
Min Temperature 50 °F 51 °F 37 °F (1991)
Degree Days  
Heating Degree Days 3    
Growing Degree Days 12 (Base 50)    
Moisture  
Dew Point 53 °F    
Average Humidity 77    
Maximum Humidity 100    
Minimum Humidity 55    
Precipitation  
Precipitation 0.03 in - - ()
Sea Level Pressure  
Sea Level Pressure 29.99 in    
Wind  
Wind Speed 6 mph (South)    
Max Wind Speed 12 mph    
Max Gust Speed -    
Visibility 10 miles    
Events Rain    
Averages and records for this station are not official NWS values.
T = Trace of Precipitation, MM = Missing Value Source: NWS Daily Summary

Daily Weather History Graph

Daily Weather History Graph

Search for Another Location

Airport or City:

Trip Planner

Search our weather history database for the weather conditions in past years. The results will help you decide how hot, cold, wet, or windy it might be!

Date:

Astronomy

Sep. 20, 2012 Rise Set
Actual Time 6:36 AM CDT 6:50 PM CDT
Civil Twilight 6:10 AM CDT 7:16 PM CDT
Nautical Twilight 5:38 AM CDT 7:47 PM CDT
Astronomical Twilight 5:07 AM CDT 8:19 PM CDT
Moon 11:51 AM CDT 9:54 PM CDT
Length of Visible Light 13h 06m
Length of Day
12h 13m
Waxing Crescent, 27% of the Moon is Illuminated
Sep 20
Waxing Crescent
Sep 22
First Quarter
Sep 29
Full
Oct 8
Last Quarter
Oct 15
New

Hourly Weather History & Observations

Time (CDT) Temp. Dew Point Humidity Pressure Visibility Wind Dir Wind Speed Gust Speed Precip Events Conditions
12:15 AM 54.1 °F 46.2 °F 75% 30.05 in 10.0 mi South 3.5 mph - N/A   Clear
12:35 AM 54.5 °F 45.9 °F 73% 30.06 in 10.0 mi Calm Calm - N/A   Clear
12:55 AM 53.2 °F 45.7 °F 76% 30.05 in 10.0 mi SSE 4.6 mph - N/A   Clear
1:15 AM 51.6 °F 46.4 °F 82% 30.05 in 10.0 mi SSE 4.6 mph - N/A   Clear
1:35 AM 52.5 °F 46.9 °F 81% 30.04 in 10.0 mi SSE 6.9 mph - N/A   Clear
1:55 AM 53.8 °F 46.6 °F 77% 30.04 in 10.0 mi SSE 6.9 mph - N/A   Clear
2:15 AM 55.8 °F 46.4 °F 71% 30.03 in 10.0 mi South 9.2 mph - N/A   Clear
2:35 AM 56.5 °F 46.4 °F 69% 30.02 in 10.0 mi South 6.9 mph - N/A   Clear
2:55 AM 56.5 °F 46.4 °F 69% 30.02 in 10.0 mi South 8.1 mph - N/A   Clear
3:15 AM 55.8 °F 46.6 °F 71% 30.01 in 10.0 mi South 8.1 mph - N/A   Clear
3:35 AM 55.8 °F 46.6 °F 71% 30.01 in 10.0 mi South 8.1 mph - N/A   Clear
3:55 AM 55.4 °F 46.9 °F 73% 30.01 in 10.0 mi South 6.9 mph - N/A   Clear
4:15 AM 55.8 °F 46.8 °F 72% 30.00 in 10.0 mi South 6.9 mph - N/A   Clear
4:35 AM 55.0 °F 46.9 °F 74% 30.00 in 10.0 mi SSE 6.9 mph - N/A   Clear
4:55 AM 55.4 °F 46.9 °F 73% 29.99 in 10.0 mi South 8.1 mph - N/A   Clear
5:15 AM 55.6 °F 46.9 °F 73% 29.99 in 10.0 mi South 8.1 mph - N/A   Clear
5:35 AM 56.5 °F 47.3 °F 71% 29.99 in 10.0 mi South 9.2 mph - N/A   Mostly Cloudy
5:55 AM 56.3 °F 47.3 °F 72% 30.00 in 10.0 mi South 5.8 mph - N/A   Mostly Cloudy
6:15 AM 56.3 °F 47.3 °F 72% 30.00 in 10.0 mi South 6.9 mph - N/A   Mostly Cloudy
6:35 AM 55.9 °F 47.3 °F 73% 29.99 in 10.0 mi SSE 6.9 mph - N/A   Scattered Clouds
6:55 AM 56.5 °F 47.5 °F 72% 29.99 in 10.0 mi South 8.1 mph - N/A   Clear
7:15 AM 58.1 °F 47.8 °F 69% 30.00 in 10.0 mi South 5.8 mph - N/A   Clear
7:35 AM 58.5 °F 48.4 °F 69% 29.99 in 10.0 mi SSE 4.6 mph - N/A   Clear
8:35 AM 62.4 °F 48.9 °F 61% 29.99 in 10.0 mi SSW 9.2 mph - N/A   Mostly Cloudy
8:55 AM 62.4 °F 49.5 °F 63% 29.99 in 10.0 mi South 6.9 mph - N/A   Mostly Cloudy
9:15 AM 60.8 °F 52.0 °F 73% 30.00 in 10.0 mi South 5.8 mph - N/A Rain Light Rain
9:35 AM 61.7 °F 52.9 °F 73% 30.01 in 10.0 mi SSW 5.8 mph - N/A   Overcast
9:55 AM 60.3 °F 54.1 °F 80% 30.00 in 10.0 mi South 5.8 mph - N/A Rain Light Rain
10:15 AM 60.3 °F 53.8 °F 79% 30.00 in 10.0 mi South 8.1 mph - N/A Rain Light Rain
10:35 AM 59.7 °F 54.7 °F 83% 29.98 in 10.0 mi South 5.8 mph - N/A   Overcast
10:55 AM 60.1 °F 56.3 °F 87% 29.99 in 10.0 mi South 5.8 mph - N/A Rain Light Rain
11:15 AM 60.8 °F 56.7 °F 86% 30.01 in 10.0 mi South 5.8 mph - N/A Rain Rain
11:35 AM 60.1 °F 56.8 °F 89% 30.01 in 7.0 mi SW 5.8 mph - 0.01 in Rain Light Rain
11:55 AM 59.5 °F 58.5 °F 96% 30.00 in 10.0 mi South 4.6 mph - 0.03 in Rain Light Rain
12:15 PM 59.9 °F 59.4 °F 98% 29.99 in 10.0 mi South 3.5 mph - N/A Rain Light Rain
12:35 PM 60.8 °F 60.3 °F 98% 30.00 in 10.0 mi South 8.1 mph - N/A   Overcast
12:55 PM 62.4 °F 61.0 °F 95% 29.99 in 10.0 mi South 6.9 mph - N/A   Overcast
1:15 PM 63.3 °F 60.6 °F 91% 29.99 in 10.0 mi SSW 5.8 mph - N/A   Overcast
1:35 PM 65.3 °F 59.7 °F 82% 29.98 in 10.0 mi SSW 9.2 mph - N/A   Overcast
1:55 PM 66.6 °F 58.1 °F 74% 29.98 in 10.0 mi SSW 11.5 mph - N/A   Overcast
2:15 PM 67.1 °F 58.5 °F 74% 29.97 in 10.0 mi SSW 10.4 mph - N/A   Overcast
2:35 PM 68.4 °F 58.1 °F 70% 29.96 in 10.0 mi SSW 10.4 mph - N/A   Overcast
2:55 PM 69.4 °F 57.7 °F 66% 29.96 in 10.0 mi SSW 10.4 mph - N/A   Overcast
3:15 PM 70.2 °F 57.6 °F 64% 29.95 in 10.0 mi SW 10.4 mph - N/A   Overcast
3:35 PM 72.9 °F 57.6 °F 59% 29.95 in 10.0 mi SSW 10.4 mph - N/A   Scattered Clouds
3:55 PM 73.0 °F 57.2 °F 57% 29.94 in 10.0 mi SW 9.2 mph - N/A   Mostly Cloudy
4:15 PM 73.6 °F 57.4 °F 57% 29.94 in 10.0 mi SW 10.4 mph - N/A   Overcast
4:35 PM 74.3 °F 57.2 °F 55% 29.95 in 10.0 mi SW 9.2 mph - N/A   Mostly Cloudy
4:55 PM 73.9 °F 57.6 °F 56% 29.95 in 10.0 mi SW 10.4 mph - N/A   Mostly Cloudy
5:15 PM 74.1 °F 57.4 °F 56% 29.95 in 10.0 mi SSW 9.2 mph - N/A   Scattered Clouds
5:35 PM 73.9 °F 58.3 °F 58% 29.95 in 10.0 mi SSW 6.9 mph - N/A   Clear
5:55 PM 73.2 °F 58.5 °F 60% 29.95 in 10.0 mi SSW 8.1 mph - N/A   Clear
6:15 PM 71.2 °F 58.1 °F 63% 29.95 in 10.0 mi SSW 5.8 mph - N/A   Clear
6:35 PM 67.8 °F 58.3 °F 71% 29.95 in 10.0 mi South 5.8 mph - N/A   Clear
6:55 PM 65.5 °F 57.7 °F 76% 29.95 in 10.0 mi South 6.9 mph - N/A   Clear
7:15 PM 63.5 °F 57.4 °F 80% 29.95 in 10.0 mi South 4.6 mph - N/A   Clear
7:55 PM 60.4 °F 57.2 °F 89% 29.97 in 10.0 mi WSW 4.6 mph - N/A   Clear
8:15 PM 61.9 °F 56.3 °F 82% 29.97 in 10.0 mi SW 5.8 mph - N/A   Clear
8:35 PM 59.7 °F 55.8 °F 87% 29.98 in 10.0 mi WSW 3.5 mph - N/A   Clear
8:55 PM 60.8 °F 55.9 °F 84% 29.98 in 10.0 mi West 5.8 mph - N/A   Clear
9:15 PM 59.5 °F 55.8 °F 87% 29.98 in 10.0 mi Calm Calm - N/A   Clear
9:55 PM 59.0 °F 54.7 °F 86% 29.99 in 10.0 mi South 3.5 mph - N/A   Clear
10:15 PM 57.2 °F 56.1 °F 96% 29.99 in 10.0 mi Calm Calm - N/A   Clear
10:35 PM 58.1 °F 55.8 °F 92% 30.00 in 10.0 mi Calm Calm - N/A   Clear
10:55 PM 54.9 °F 54.0 °F 97% 30.00 in 10.0 mi Calm Calm - N/A   Clear
11:15 PM 55.0 °F 55.0 °F 100% 30.00 in 10.0 mi Calm Calm - N/A   Clear
11:35 PM 50.4 °F 50.4 °F 100% 30.00 in 10.0 mi Calm Calm - N/A   Clear
11:55 PM 50.4 °F 50.4 °F 100% 30.00 in 10.0 mi Calm Calm - N/A   Clear